Weather History for Missoula, MT

Change the Weather History Date:

Monday, March 31, 2014

  Actual Average Record
Temperature  
Mean Temperature 41 °F 43 °F  
Max Temperature 49 °F 55 °F 71 °F (1923)
Min Temperature 32 °F 31 °F 5 °F (1936)
Degree Days  
Heating Degree Days 24 22  
Month to date heating degree days 868 812  
Since 1 July heating degree days 6378 6183  
Cooling Degree Days 0 0  
Month to date cooling degree days 0 0  
Year to date cooling degree days 0 0  
Moisture  
Dew Point 30 °F    
Average Humidity 67    
Maximum Humidity 100    
Minimum Humidity 34    
Precipitation  
Precipitation 0.01 in 0.04 in 0.93 in (1906)
Month to date precipitation 1.77 1.00  
Year to date precipitation 5.12 2.55  
Snow  
Snow T in - - ()
Month to date snowfall 5.1  
Year to date snowfall 51.8  
Since 1 July snowfall 65.7  
Snow Depth 0.00 in    
Sea Level Pressure  
Sea Level Pressure 29.98 in    
Wind  
Wind Speed 4 mph (WNW)    
Max Wind Speed 20 mph    
Max Gust Speed 23 mph    
Visibility 10 miles    
Events Rain    
T = Trace of Precipitation, MM = Missing Value Source: NWS Daily Summary

Daily Weather History Graph

Daily Weather History Graph

Search for Another Location

Airport:

Trip Planner

Search our weather history database for the weather conditions in past years. The results will help you decide how hot, cold, wet, or windy it might be!

Date:

Astronomy

Mar. 31, 2014 Rise Set
Actual Time 7:17 AM MDT 8:04 PM MDT
Civil Twilight 6:46 AM MDT 8:35 PM MDT
Nautical Twilight 6:10 AM MDT 9:11 PM MDT
Astronomical Twilight 5:31 AM MDT 9:50 PM MDT
Moon 7:39 AM MDT (3/31) 9:33 PM MDT (3/31)
Length of Visible Light 13h 48m
Length of Day
12h 47m
New Moon, 1% of the Moon is Illuminated
Mar 31
New Moon
Apr 7
First Quarter
Apr 15
Full
Apr 22
Last Quarter
Apr 29
New

Hourly Weather History & Observations

Time (MDT) Temp. Windchill Dew Point Humidity Pressure Visibility Wind Dir Wind Speed Gust Speed Precip Events Conditions
12:53 AM 35.1 °F - 32.0 °F 89% 30.02 in 10.0 mi Calm Calm - N/A   Scattered Clouds
1:44 AM 34.0 °F 31.0 °F 32.0 °F 92% 29.99 in 10.0 mi NW 3.5 mph - N/A   Overcast
1:53 AM 33.1 °F 28.7 °F 30.9 °F 92% 30.04 in 10.0 mi NW 4.6 mph - 0.00 in Rain Light Rain
2:53 AM 34.0 °F 31.0 °F 32.0 °F 92% 30.04 in 10.0 mi NW 3.5 mph - 0.01 in Rain Light Rain
3:53 AM 32.0 °F 27.5 °F 30.9 °F 96% 30.05 in 10.0 mi NW 4.6 mph - 0.00 in   Mostly Cloudy
4:30 AM 33.1 °F - 30.9 °F 92% 30.00 in 10.0 mi Calm Calm - N/A   Overcast
4:44 AM 33.1 °F - 32.0 °F 96% 30.00 in 10.0 mi Calm Calm - N/A   Overcast
4:53 AM 33.1 °F - 32.0 °F 96% 30.06 in 10.0 mi Calm Calm - N/A   Overcast
5:05 AM 32.0 °F - 30.9 °F 96% 30.00 in 10.0 mi Calm Calm - N/A   Overcast
5:53 AM 33.1 °F - 32.0 °F 96% 30.06 in 10.0 mi Calm Calm - N/A   Overcast
6:09 AM 32.0 °F - 32.0 °F 100% 30.00 in 10.0 mi Calm Calm - N/A   Overcast
6:40 AM 32.0 °F - 32.0 °F 100% 30.00 in 10.0 mi Calm Calm - N/A   Overcast
6:53 AM 33.1 °F - 32.0 °F 96% 30.06 in 10.0 mi Calm Calm - N/A   Overcast
7:53 AM 33.1 °F 28.7 °F 32.0 °F 96% 30.08 in 7.0 mi WNW 4.6 mph - N/A   Overcast
8:14 AM 33.1 °F 28.7 °F 32.0 °F 96% 30.01 in 8.0 mi NW 4.6 mph - N/A   Overcast
8:53 AM 34.0 °F 31.0 °F 33.1 °F 96% 30.08 in 7.0 mi WNW 3.5 mph - N/A   Overcast
9:31 AM 34.0 °F 31.0 °F 33.1 °F 96% 30.01 in 10.0 mi West 3.5 mph - N/A   Overcast
9:38 AM 35.1 °F 32.2 °F 33.1 °F 92% 30.01 in 10.0 mi WSW 3.5 mph - N/A   Overcast
9:53 AM 35.1 °F - 33.1 °F 92% 30.07 in 10.0 mi Calm Calm - N/A   Overcast
10:46 AM 36.0 °F - 32.0 °F 86% 30.01 in 10.0 mi Calm Calm - N/A   Overcast
10:53 AM 37.0 °F - 32.0 °F 82% 30.07 in 10.0 mi Calm Calm - N/A   Overcast
11:53 AM 41.0 °F 39.0 °F 30.9 °F 67% 30.04 in 10.0 mi South 3.5 mph - N/A   Clear
12:00 PM 42.1 °F 40.2 °F 30.0 °F 62% 29.97 in 10.0 mi Variable 3.5 mph - N/A   Clear
12:53 PM 43.0 °F - 27.0 °F 53% 30.00 in 10.0 mi Calm Calm - N/A   Clear
1:53 PM 46.0 °F - 25.0 °F 44% 29.97 in 10.0 mi Calm Calm - N/A   Clear
2:53 PM 46.9 °F - 21.9 °F 37% 29.93 in 10.0 mi Variable 3.5 mph - N/A   Clear
3:53 PM 48.9 °F - 21.9 °F 35% 29.91 in 10.0 mi West 4.6 mph - N/A   Overcast
4:53 PM 45.0 °F 38.5 °F 30.0 °F 56% 29.91 in 10.0 mi West 13.8 mph - N/A   Overcast
5:53 PM 46.0 °F 41.0 °F 28.9 °F 51% 29.89 in 10.0 mi WNW 10.4 mph - N/A   Overcast
6:53 PM 45.0 °F 40.6 °F 28.0 °F 52% 29.89 in 10.0 mi West 8.1 mph - N/A   Overcast
7:53 PM 44.1 °F - 28.0 °F 53% 29.88 in 10.0 mi Calm Calm - N/A   Overcast
8:53 PM 39.9 °F - 30.0 °F 68% 29.88 in 10.0 mi Calm Calm - N/A   Overcast
9:53 PM 37.9 °F 35.5 °F 28.0 °F 68% 29.89 in 10.0 mi NNW 3.5 mph - N/A   Mostly Cloudy
10:53 PM 39.0 °F 34.0 °F 27.0 °F 62% 29.88 in 10.0 mi East 6.9 mph - N/A   Clear
11:53 PM 36.0 °F 29.0 °F 28.9 °F 76% 29.86 in 10.0 mi ESE 9.2 mph - N/A   Clear